Find Starlink 30861

NORAD ID: 58230 Int'l Des: 2023-171 Owner: SPXS Country: US Constellation: starlink operational
LEOCIRCULAR

当前视图

正在加载3D地球...

About Starlink 30861

Starlink 30861 (NORAD 58230) is a starlink constellation satellite (v2 mini) launched Nov 8, 2023 by SPXS of US. It operates in LEO, CIRCULAR orbit with a mass of 730.00 kg.

关于 Starlink 30861

正在加载描述...

即将过境

Passes for default location (London). Set your location on the main map for personalized predictions.

高度历史

Loading altitude history...

两行轨道根数

1 58230U 23171A 26171.06161441 .00040505 00000-0 13360-2 0 9991
2 58230 42.9917 67.6716 0007890 204.1330 155.9154 15.30738875145380
Epoch: Jun 20, 2026 • Age: 36 hours

当前状态

高度 478.1 km
速度 7.63 km/s
星下点 21.48°N, 30.37°W
发射日期 Nov 8, 2023
运行时间 2.6 years
类型 internet

技术详情

分类 Payload
质量 730.00 kg
干质量 700.00 kg
总质量 730.00 kg
长度 0.30 m
直径 4.10 m
跨度 29.00 m
形状 Box + pan
制造商 SPXS
平台类型 Starlink V2M
阶段状态 In Orbit
所有者/国家 SPXS/US

Most Searched